Beatrice, NE

3:26 PM CST on December 09, 2019 (GMT -0600)
Beatrice Municipal

Weather History for KBIE - October, 2019

Change the Weather History Date:

Wednesday, October 30, 2019

  Actual Average Record
Temperature  
Mean Temperature 30 °F -  
Max Temperature 32 °F 61 °F 83 °F (1968)
Min Temperature 28 °F 41 °F 26 °F (1952)
Degree Days  
Heating Degree Days 34    
Moisture  
Dew Point 23 °F    
Average Humidity 72    
Maximum Humidity 82    
Minimum Humidity 56    
Precipitation  
Precipitation 0.00 in - - ()
Sea Level Pressure  
Sea Level Pressure 30.31 in    
Wind  
Wind Speed 12 mph (North)    
Max Wind Speed 17 mph    
Max Gust Speed 25 mph    
Visibility 9 miles    
Events Snow    
Averages and records for this station are not official NWS values.
T = Trace of Precipitation, MM = Missing Value Source: NWS Daily Summary

Daily Weather History Graph

Daily Weather History Graph

Search for Another Location

Airport or City:

Astronomy

Oct. 30, 2019 Rise Set
Actual Time 7:54 AM CDT 6:26 PM CDT
Civil Twilight 7:25 AM CDT 6:54 PM CDT
Nautical Twilight 6:53 AM CDT 7:26 PM CDT
Astronomical Twilight 6:22 AM CDT 7:58 PM CDT
Moon 10:38 AM CDT (10/30) 8:35 PM CDT (10/30)
Length of Visible Light 11h 28m
Length of Day
10h 32m
Waxing Crescent, 9% of the Moon is Illuminated
Oct 30
Waxing Crescent
Nov 4
First Quarter
Nov 12
Full
Nov 19
Last Quarter
Nov 26
New

Hourly Weather History & Observations

Time (CDT) Temp. Windchill Dew Point Humidity Pressure Visibility Wind Dir Wind Speed Gust Speed Precip Events Conditions
12:15 AM 33.1 °F 24.4 °F 27.5 °F 80% 30.33 in 10.0 mi North 11.5 mph - N/A   Overcast
12:35 AM 32.9 °F 24.7 °F 27.3 °F 80% 30.33 in 10.0 mi North 10.4 mph - N/A   Overcast
12:55 AM 32.5 °F 24.2 °F 26.8 °F 79% 30.32 in 10.0 mi North 10.4 mph - N/A   Overcast
1:15 AM 32.4 °F 25.3 °F 26.8 °F 80% 30.32 in 10.0 mi North 8.1 mph - N/A   Overcast
1:35 AM 32.4 °F 23.0 °F 26.4 °F 79% 30.32 in 10.0 mi North 12.7 mph 16.1 mph N/A   Overcast
1:55 AM 32.2 °F 22.7 °F 26.1 °F 78% 30.33 in 10.0 mi North 12.7 mph 17.3 mph N/A   Overcast
2:15 AM 32.0 °F 22.5 °F 25.2 °F 76% 30.33 in 10.0 mi North 12.7 mph 19.6 mph N/A   Overcast
2:35 AM 32.0 °F 23.0 °F 24.4 °F 74% 30.32 in 10.0 mi North 11.5 mph 17.3 mph N/A   Overcast
3:15 AM 31.8 °F 21.8 °F 22.5 °F 68% 30.32 in 10.0 mi North 13.8 mph - N/A   Overcast
3:35 AM 31.8 °F 21.8 °F 21.6 °F 66% 30.33 in 10.0 mi North 13.8 mph 19.6 mph N/A   Overcast
3:55 AM 31.6 °F 21.6 °F 20.5 °F 63% 30.33 in 10.0 mi North 13.8 mph 24.2 mph N/A   Overcast
4:15 AM 31.5 °F 20.9 °F 19.8 °F 62% 30.33 in 10.0 mi North 15.0 mph 24.2 mph N/A   Overcast
4:35 AM 31.5 °F 21.4 °F 19.0 °F 60% 30.32 in 10.0 mi NNE 13.8 mph - N/A   Overcast
4:55 AM 31.3 °F 21.1 °F 18.3 °F 59% 30.32 in 10.0 mi North 13.8 mph 23.0 mph N/A   Overcast
5:15 AM 31.1 °F 20.9 °F 18.1 °F 59% 30.32 in 10.0 mi North 13.8 mph 20.7 mph N/A   Overcast
5:35 AM 31.1 °F 21.9 °F 18.1 °F 59% 30.33 in 10.0 mi North 11.5 mph 18.4 mph N/A   Overcast
5:55 AM 30.9 °F 19.8 °F 17.4 °F 57% 30.33 in 10.0 mi North 16.1 mph 21.9 mph N/A   Overcast
6:15 AM 30.7 °F 20.9 °F 17.6 °F 58% 30.33 in 10.0 mi North 12.7 mph 20.7 mph N/A   Overcast
6:35 AM 30.7 °F 19.6 °F 16.7 °F 56% 30.33 in 10.0 mi North 16.1 mph 25.3 mph N/A   Overcast
6:55 AM 30.7 °F 20.9 °F 17.6 °F 58% 30.33 in 10.0 mi North 12.7 mph 20.7 mph N/A   Overcast
7:10 AM 30.6 °F 19.8 °F 17.2 °F 58% 30.33 in 10.0 mi North 15.0 mph 20.7 mph N/A   Overcast
7:35 AM 30.4 °F 20.5 °F 17.4 °F 59% 30.32 in 10.0 mi NNE 12.7 mph - N/A   Overcast
7:55 AM 30.2 °F 19.8 °F 17.6 °F 60% 30.33 in 10.0 mi NNE 13.8 mph 23.0 mph N/A   Overcast
8:15 AM 30.0 °F 19.5 °F 17.8 °F 60% 30.35 in 10.0 mi North 13.8 mph 20.7 mph N/A   Overcast
8:35 AM 30.0 °F 18.7 °F 17.6 °F 60% 30.35 in 10.0 mi North 16.1 mph - N/A   Overcast
8:55 AM 29.3 °F 19.6 °F 20.1 °F 69% 30.35 in 10.0 mi North 11.5 mph 20.7 mph N/A   Overcast
9:15 AM 29.1 °F 18.9 °F 21.2 °F 72% 30.35 in 10.0 mi North 12.7 mph 21.9 mph N/A   Overcast
9:35 AM 28.9 °F 19.8 °F 21.9 °F 75% 30.36 in 10.0 mi North 10.4 mph 18.4 mph N/A Snow Light Snow
9:55 AM 28.9 °F 17.3 °F 22.1 °F 76% 30.37 in 10.0 mi North 16.1 mph 20.7 mph N/A   Overcast
10:15 AM 29.1 °F 17.9 °F 23.0 °F 78% 30.37 in 10.0 mi North 15.0 mph 19.6 mph N/A Snow Light Snow
10:35 AM 28.9 °F 18.6 °F 22.6 °F 77% 30.38 in 7.0 mi North 12.7 mph 20.7 mph N/A Snow Light Snow
10:55 AM 29.1 °F 18.4 °F 23.0 °F 78% 30.37 in 4.0 mi NNE 13.8 mph 21.9 mph N/A Snow Light Snow
11:15 AM 29.3 °F 17.7 °F 23.0 °F 77% 30.37 in 7.0 mi North 16.1 mph 24.2 mph N/A Snow Light Snow
11:35 AM 30.4 °F 19.5 °F 23.7 °F 76% 30.37 in 5.0 mi NNE 15.0 mph 21.9 mph N/A Snow Light Snow
11:55 AM 30.4 °F 20.5 °F 23.7 °F 76% 30.37 in 7.0 mi North 12.7 mph 18.4 mph N/A Snow Light Snow
12:15 PM 30.2 °F 19.8 °F 23.7 °F 77% 30.37 in 10.0 mi North 13.8 mph 18.4 mph N/A Snow Light Snow
12:35 PM 30.2 °F 18.5 °F 23.0 °F 75% 30.35 in 10.0 mi North 17.3 mph 24.2 mph N/A   Overcast
12:55 PM 30.7 °F 20.4 °F 23.2 °F 74% 30.34 in 7.0 mi North 13.8 mph 23.0 mph N/A Snow Light Snow
1:15 PM 30.7 °F 19.6 °F 23.9 °F 76% 30.34 in 10.0 mi North 16.1 mph 19.6 mph N/A   Overcast
1:35 PM 30.7 °F 19.6 °F 24.1 °F 76% 30.33 in 10.0 mi North 16.1 mph - N/A   Overcast
1:55 PM 31.1 °F 21.4 °F 24.4 °F 76% 30.31 in 10.0 mi North 12.7 mph 19.6 mph N/A   Overcast
2:15 PM 30.6 °F 19.4 °F 24.3 °F 77% 30.31 in 7.0 mi North 16.1 mph - N/A   Overcast
2:35 PM 30.7 °F 20.0 °F 24.6 °F 78% 30.30 in 5.0 mi North 15.0 mph 18.4 mph N/A Snow Light Snow
2:55 PM 31.3 °F 21.6 °F 24.1 °F 75% 30.29 in 7.0 mi North 12.7 mph 19.6 mph N/A   Overcast
3:15 PM 32.0 °F 21.6 °F 25.3 °F 76% 30.28 in 7.0 mi NNW 15.0 mph 18.4 mph N/A   Overcast
3:35 PM 31.6 °F 22.6 °F 26.1 °F 80% 30.28 in 4.0 mi North 11.5 mph - N/A Snow Light Snow
3:55 PM 31.1 °F 21.4 °F 25.7 °F 80% 30.28 in 7.0 mi North 12.7 mph - N/A   Overcast
4:15 PM 31.1 °F 20.9 °F 26.1 °F 82% 30.27 in 5.0 mi NNW 13.8 mph - N/A   Haze
4:35 PM 31.1 °F 21.4 °F 25.9 °F 81% 30.27 in 10.0 mi North 12.7 mph - N/A   Overcast
4:55 PM 31.5 °F 21.8 °F 24.8 °F 76% 30.27 in 10.0 mi NNW 12.7 mph - N/A   Overcast
5:15 PM 31.8 °F 22.3 °F 24.8 °F 75% 30.27 in 10.0 mi NNW 12.7 mph - N/A   Overcast
5:55 PM 30.9 °F 22.2 °F 25.5 °F 80% 30.26 in 5.0 mi NW 10.4 mph - N/A Snow Light Snow
6:15 PM 30.7 °F 22.6 °F 25.3 °F 80% 30.26 in 4.0 mi NW 9.2 mph - N/A Snow Light Snow
6:35 PM 30.6 °F 23.8 °F 25.0 °F 80% 30.26 in 5.0 mi NNW 6.9 mph - N/A Snow Light Snow
6:55 PM 30.7 °F 26.0 °F 25.0 °F 79% 30.26 in 10.0 mi NW 4.6 mph - N/A   Overcast
7:15 PM 31.3 °F 23.9 °F 23.5 °F 73% 30.26 in 10.0 mi NW 8.1 mph - N/A   Overcast
7:35 PM 31.8 °F 24.6 °F 22.3 °F 68% 30.26 in 10.0 mi NNW 8.1 mph - N/A   Overcast
7:55 PM 31.6 °F 23.1 °F 22.5 °F 69% 30.27 in 10.0 mi NNW 10.4 mph 16.1 mph N/A   Overcast
8:15 PM 31.8 °F 22.3 °F 22.6 °F 69% 30.27 in 10.0 mi NW 12.7 mph 16.1 mph N/A   Overcast
8:35 PM 31.1 °F 23.7 °F 22.8 °F 71% 30.27 in 7.0 mi NNW 8.1 mph - N/A   Overcast
9:15 PM 31.8 °F 26.2 °F 21.7 °F 66% 30.27 in 10.0 mi NW 5.8 mph - N/A   Overcast
9:35 PM 31.5 °F 24.9 °F 21.9 °F 68% 30.27 in 10.0 mi NW 6.9 mph - N/A   Overcast
9:55 PM 30.9 °F 25.2 °F 22.6 °F 71% 30.27 in 10.0 mi WNW 5.8 mph - N/A   Overcast
10:15 PM 30.2 °F 24.3 °F 23.0 °F 75% 30.28 in 10.0 mi West 5.8 mph - N/A   Overcast
10:35 PM 29.8 °F 23.9 °F 23.0 °F 76% 30.27 in 10.0 mi WNW 5.8 mph - N/A   Overcast
10:55 PM 29.7 °F 23.7 °F 23.0 °F 76% 30.27 in 10.0 mi WNW 5.8 mph - N/A   Overcast
11:15 PM 29.3 °F 23.2 °F 23.0 °F 77% 30.28 in 10.0 mi WNW 5.8 mph - N/A   Overcast
11:35 PM 29.3 °F 24.3 °F 23.0 °F 77% 30.27 in 10.0 mi WNW 4.6 mph - N/A   Overcast
11:55 PM 29.3 °F 23.2 °F 23.0 °F 77% 30.27 in 10.0 mi WNW 5.8 mph - N/A   Overcast